QPF
0.18 0.19 0.21 0.26 0.33 0.35 0.34 0.36 0.39 0.41 0.43 0.46 0.53 0.58 0.65 0.79 0.76 0.78 0.79 0.77 0.77 0.76 0.74 0.70 0.64 0.60 0.56 0.48 0.42 0.41 0.39 0.32 0.34 0.34 0.29 0.15 0.13 0.11 0.10 0.09 0.06 0.02 0.00 0.00 0.00 0.00 0.00 0.00 0.00 0.00 0.01 0.01 0.00 0.00 0.00 0.00 0.00 0.00 0.00 0.00 0.00 0.00 0.00 0.00 0.00 0.00 0.00 0.00 0.00
0.27 0.29 0.32 0.39 0.41 0.42 0.43 0.44 0.46 0.51 0.56 0.56 0.63 0.65 0.67 0.73 0.77 0.79 0.78 0.74 0.73 0.73 0.74 0.76 0.77 0.78 0.78 0.75 0.65 0.59 0.57 0.60 0.56 0.51 0.41 0.23 0.21 0.19 0.16 0.11 0.09 0.05 0.01 0.01 0.01 0.01 0.01 0.00 0.00 0.01 0.01 0.01 0.00 0.00 0.00 0.00 0.00 0.00 0.00 0.00 0.00 0.00 0.00 0.00 0.00 0.00 0.00 0.00 0.00
0.32 0.30 0.31 0.33 0.34 0.36 0.38 0.37 0.44 0.52 0.60 0.64 0.66 0.69 0.73 0.76 0.77 0.76 0.72 0.65 0.67 0.66 0.66 0.75 0.77 0.77 0.77 0.78 0.75 0.70 0.65 0.64 0.61 0.59 0.55 0.43 0.37 0.33 0.28 0.21 0.16 0.10 0.05 0.03 0.02 0.01 0.01 0.01 0.01 0.01 0.01 0.01 0.01 0.00 0.00 0.00 0.00 0.00 0.00 0.00 0.00 0.00 0.00 0.00 0.00 0.00 0.00 0.00 0.00
0.54 0.53 0.44 0.27 0.25 0.25 0.25 0.27 0.36 0.48 0.56 0.54 0.57 0.61 0.64 0.66 0.73 0.73 0.69 0.63 0.57 0.57 0.61 0.65 0.61 0.65 0.70 0.74 0.64 0.63 0.66 0.66 0.67 0.68 0.66 0.62 0.52 0.48 0.44 0.36 0.29 0.23 0.18 0.13 0.08 0.05 0.04 0.05 0.03 0.02 0.01 0.01 0.01 0.01 0.00 0.00 0.00 0.00 0.00 0.00 0.00 0.00 0.00 0.00 0.00 0.00 0.00 0.00 0.00
0.28 0.39 0.41 0.29 0.23 0.18 0.17 0.21 0.28 0.37 0.44 0.46 0.41 0.40 0.41 0.44 0.58 0.65 0.68 0.69 0.59 0.50 0.45 0.46 0.38 0.39 0.42 0.37 0.40 0.46 0.53 0.57 0.63 0.62 0.61 0.64 0.57 0.53 0.49 0.44 0.43 0.39 0.31 0.19 0.18 0.14 0.10 0.10 0.07 0.04 0.01 0.01 0.01 0.00 0.00 0.00 0.00 0.00 0.00 0.00 0.00 0.00 0.00 0.00 0.00 0.00 0.00 0.00 0.00
0.09 0.15 0.23 0.30 0.23 0.18 0.14 0.11 0.17 0.29 0.39 0.41 0.42 0.38 0.36 0.38 0.44 0.54 0.64 0.66 0.60 0.50 0.40 0.36 0.29 0.26 0.28 0.33 0.32 0.37 0.42 0.46 0.45 0.48 0.52 0.53 0.59 0.57 0.53 0.50 0.47 0.43 0.39 0.34 0.25 0.20 0.15 0.11 0.07 0.04 0.02 0.02 0.01 0.00 0.00 0.00 0.00 0.00 0.00 0.00 0.00 0.00 0.00 0.00 0.00 0.00 0.00 0.00 0.00
0.05 0.06 0.11 0.20 0.21 0.18 0.14 0.09 0.09 0.20 0.33 0.41 0.41 0.37 0.32 0.31 0.34 0.39 0.46 0.53 0.58 0.54 0.47 0.44 0.42 0.41 0.38 0.31 0.30 0.32 0.35 0.35 0.32 0.35 0.40 0.44 0.45 0.47 0.50 0.55 0.48 0.41 0.37 0.37 0.29 0.24 0.19 0.12 0.09 0.06 0.03 0.02 0.02 0.01 0.00 0.00 0.00 0.00 0.00 0.00 0.00 0.00 0.00 0.00 0.00 0.00 0.00 0.00 0.00
0.03 0.04 0.06 0.09 0.13 0.16 0.16 0.12 0.09 0.10 0.17 0.29 0.33 0.29 0.24 0.23 0.34 0.36 0.36 0.40 0.49 0.51 0.53 0.61 0.50 0.42 0.39 0.42 0.36 0.32 0.27 0.20 0.20 0.20 0.24 0.31 0.33 0.35 0.36 0.39 0.42 0.42 0.42 0.40 0.32 0.25 0.20 0.16 0.10 0.06 0.04 0.03 0.03 0.02 0.01 0.00 0.00 0.00 0.00 0.00 0.00 0.00 0.00 0.00 0.00 0.00 0.00 0.00 0.00
0.03 0.04 0.04 0.03 0.05 0.08 0.11 0.14 0.11 0.09 0.07 0.09 0.19 0.24 0.24 0.21 0.31 0.39 0.46 0.48 0.49 0.55 0.61 0.61 0.55 0.49 0.44 0.43 0.42 0.37 0.28 0.17 0.13 0.13 0.15 0.18 0.24 0.28 0.30 0.32 0.36 0.38 0.40 0.39 0.35 0.28 0.21 0.16 0.10 0.06 0.03 0.03 0.02 0.02 0.01 0.01 0.01 0.00 0.00 0.00 0.00 0.00 0.00 0.00 0.00 0.00 0.00 0.00 0.00
0.02 0.02 0.02 0.03 0.03 0.02 0.03 0.07 0.09 0.08 0.05 0.04 0.07 0.13 0.20 0.25 0.23 0.21 0.20 0.25 0.36 0.50 0.61 0.63 0.61 0.57 0.52 0.44 0.43 0.38 0.30 0.18 0.11 0.10 0.12 0.12 0.13 0.16 0.21 0.26 0.29 0.30 0.32 0.35 0.30 0.25 0.20 0.15 0.09 0.06 0.03 0.02 0.02 0.01 0.01 0.01 0.01 0.01 0.01 0.00 0.00 0.00 0.00 0.00 0.00 0.00 0.00 0.00 0.00
0.01 0.01 0.01 0.01 0.01 0.01 0.01 0.01 0.02 0.05 0.07 0.07 0.09 0.11 0.13 0.16 0.23 0.23 0.22 0.24 0.30 0.36 0.44 0.57 0.68 0.66 0.58 0.50 0.43 0.36 0.29 0.20 0.13 0.09 0.08 0.10 0.08 0.09 0.13 0.19 0.20 0.24 0.27 0.23 0.23 0.22 0.19 0.10 0.07 0.04 0.03 0.02 0.02 0.01 0.01 0.01 0.02 0.02 0.02 0.01 0.00 0.00 0.00 0.00 0.00 0.00 0.00 0.00 0.00
0.01 0.00 0.00 0.00 0.00 0.00 0.00 0.00 0.00 0.02 0.05 0.05 0.07 0.12 0.15 0.13 0.15 0.21 0.26 0.25 0.22 0.21 0.25 0.43 0.71 0.72 0.62 0.54 0.45 0.36 0.29 0.26 0.17 0.13 0.11 0.08 0.10 0.09 0.09 0.11 0.14 0.16 0.17 0.16 0.15 0.13 0.11 0.06 0.05 0.04 0.03 0.03 0.02 0.01 0.01 0.01 0.02 0.03 0.03 0.02 0.01 0.00 0.00 0.00 0.00 0.00 0.00 0.00 0.00
0.00 0.00 0.00 0.00 0.00 0.00 0.00 0.00 0.00 0.01 0.02 0.03 0.05 0.08 0.11 0.12 0.10 0.18 0.27 0.23 0.23 0.19 0.21 0.34 0.62 0.70 0.68 0.63 0.53 0.43 0.36 0.34 0.27 0.20 0.14 0.09 0.10 0.10 0.10 0.09 0.12 0.11 0.10 0.09 0.08 0.07 0.06 0.05 0.04 0.04 0.03 0.03 0.02 0.01 0.01 0.01 0.02 0.03 0.04 0.04 0.02 0.01 0.01 0.00 0.00 0.00 0.00 0.00 0.00
0.00 0.00 0.00 0.00 0.00 0.00 0.00 0.00 0.00 0.00 0.01 0.02 0.03 0.04 0.06 0.06 0.06 0.14 0.23 0.24 0.24 0.22 0.22 0.30 0.46 0.59 0.68 0.70 0.66 0.57 0.48 0.45 0.41 0.29 0.18 0.14 0.10 0.11 0.13 0.13 0.11 0.08 0.06 0.05 0.05 0.04 0.04 0.04 0.04 0.04 0.03 0.03 0.02 0.02 0.01 0.01 0.01 0.03 0.04 0.04 0.03 0.02 0.01 0.00 0.00 0.00 0.00 0.00 0.00
0.00 0.00 0.00 0.00 0.00 0.00 0.00 0.00 0.00 0.00 0.00 0.01 0.01 0.02 0.02 0.02 0.02 0.08 0.17 0.22 0.22 0.21 0.22 0.27 0.38 0.54 0.67 0.69 0.69 0.65 0.59 0.54 0.45 0.33 0.22 0.16 0.11 0.11 0.13 0.14 0.12 0.09 0.06 0.05 0.04 0.03 0.03 0.03 0.04 0.03 0.03 0.03 0.02 0.02 0.01 0.01 0.01 0.02 0.03 0.04 0.03 0.02 0.02 0.01 0.00 0.00 0.00 0.00 0.00
0.00 0.00 0.00 0.00 0.00 0.00 0.00 0.00 0.00 0.00 0.00 0.00 0.00 0.00 0.01 0.01 0.01 0.05 0.11 0.17 0.18 0.19 0.20 0.22 0.29 0.52 0.71 0.65 0.65 0.70 0.73 0.68 0.55 0.41 0.28 0.16 0.13 0.13 0.14 0.13 0.11 0.08 0.05 0.04 0.04 0.03 0.02 0.02 0.03 0.03 0.03 0.02 0.02 0.02 0.01 0.01 0.01 0.01 0.02 0.03 0.03 0.02 0.02 0.01 0.01 0.01 0.01 0.00 0.00
0.00 0.00 0.00 0.00 0.00 0.00 0.00 0.00 0.00 0.00 0.00 0.00 0.00 0.00 0.00 0.00 0.02 0.04 0.07 0.12 0.15 0.16 0.16 0.15 0.20 0.36 0.54 0.66 0.65 0.76 0.87 0.89 0.74 0.57 0.38 0.17 0.14 0.15 0.16 0.12 0.11 0.08 0.05 0.03 0.03 0.03 0.03 0.02 0.02 0.03 0.04 0.03 0.02 0.02 0.01 0.01 0.01 0.01 0.01 0.02 0.03 0.03 0.02 0.01 0.02 0.02 0.02 0.01 0.00
0.01 0.00 0.00 0.00 0.00 0.00 0.00 0.00 0.00 0.00 0.00 0.00 0.00 0.00 0.00 0.00 0.01 0.03 0.05 0.08 0.10 0.11 0.10 0.10 0.13 0.16 0.26 0.47 0.60 0.78 0.95 1.05 0.91 0.72 0.47 0.14 0.12 0.14 0.15 0.13 0.11 0.09 0.07 0.04 0.03 0.03 0.03 0.02 0.03 0.04 0.05 0.05 0.03 0.02 0.01 0.01 0.01 0.01 0.01 0.02 0.03 0.03 0.02 0.02 0.02 0.03 0.03 0.02 0.01
0.01 0.01 0.01 0.00 0.00 0.00 0.00 0.00 0.00 0.00 0.00 0.00 0.00 0.00 0.00 0.00 0.00 0.03 0.06 0.06 0.05 0.05 0.04 0.04 0.06 0.08 0.13 0.22 0.42 0.62 0.81 0.97 0.92 0.78 0.55 0.21 0.16 0.15 0.15 0.11 0.10 0.09 0.07 0.05 0.03 0.02 0.02 0.02 0.02 0.03 0.04 0.04 0.03 0.02 0.02 0.02 0.01 0.01 0.01 0.01 0.02 0.02 0.02 0.02 0.03 0.03 0.03 0.02 0.01
0.01 0.01 0.01 0.01 0.00 0.00 0.00 0.00 0.00 0.00 0.00 0.00 0.00 0.00 0.00 0.01 0.00 0.02 0.04 0.07 0.06 0.04 0.02 0.02 0.03 0.05 0.07 0.10 0.19 0.33 0.49 0.65 0.73 0.70 0.55 0.26 0.19 0.14 0.10 0.06 0.06 0.06 0.05 0.04 0.03 0.02 0.02 0.03 0.02 0.02 0.03 0.03 0.03 0.02 0.02 0.02 0.02 0.02 0.01 0.02 0.02 0.02 0.02 0.03 0.04 0.04 0.03 0.02 0.02
0.01 0.01 0.01 0.01 0.01 0.01 0.01 0.00 0.00 0.00 0.00 0.00 0.00 0.00 0.01 0.01 0.01 0.01 0.02 0.04 0.06 0.05 0.03 0.02 0.02 0.03 0.05 0.07 0.07 0.12 0.20 0.32 0.43 0.49 0.43 0.23 0.19 0.11 0.05 0.03 0.03 0.03 0.04 0.03 0.03 0.02 0.02 0.03 0.02 0.02 0.02 0.03 0.03 0.02 0.02 0.02 0.02 0.02 0.02 0.02 0.02 0.02 0.02 0.03 0.04 0.04 0.04 0.02 0.02
0.01 0.01 0.01 0.01 0.01 0.01 0.01 0.01 0.01 0.01 0.01 0.01 0.01 0.01 0.01 0.01 0.01 0.01 0.01 0.01 0.03 0.03 0.03 0.04 0.04 0.04 0.04 0.05 0.05 0.06 0.09 0.15 0.23 0.25 0.24 0.20 0.19 0.11 0.04 0.03 0.03 0.03 0.03 0.03 0.03 0.02 0.02 0.02 0.02 0.02 0.02 0.03 0.03 0.03 0.02 0.03 0.03 0.03 0.02 0.02 0.02 0.02 0.03 0.04 0.04 0.04 0.04 0.03 0.02
0.01 0.01 0.01 0.01 0.01 0.01 0.01 0.01 0.01 0.01 0.01 0.01 0.01 0.01 0.01 0.01 0.01 0.01 0.01 0.01 0.01 0.01 0.02 0.04 0.05 0.06 0.06 0.07 0.13 0.13 0.11 0.11 0.20 0.22 0.21 0.23 0.19 0.13 0.06 0.03 0.03 0.04 0.03 0.03 0.03 0.03 0.02 0.02 0.02 0.02 0.03 0.03 0.03 0.03 0.03 0.03 0.03 0.03 0.03 0.03 0.03 0.03 0.04 0.04 0.04 0.04 0.03 0.03 0.02
0.02 0.02 0.02 0.02 0.02 0.02 0.02 0.02 0.02 0.01 0.01 0.01 0.01 0.01 0.01 0.01 0.01 0.01 0.01 0.01 0.01 0.01 0.01 0.01 0.02 0.05 0.07 0.09 0.22 0.25 0.24 0.24 0.26 0.27 0.26 0.24 0.23 0.18 0.11 0.03 0.03 0.03 0.03 0.02 0.03 0.03 0.02 0.02 0.02 0.03 0.03 0.03 0.03 0.03 0.03 0.03 0.03 0.03 0.03 0.03 0.03 0.04 0.04 0.05 0.05 0.05 0.04 0.03 0.02
0.03 0.02 0.02 0.02 0.02 0.02 0.02 0.02 0.02 0.02 0.01 0.01 0.01 0.01 0.01 0.01 0.01 0.01 0.01 0.01 0.01 0.01 0.01 0.01 0.01 0.03 0.06 0.12 0.18 0.23 0.26 0.23 0.24 0.25 0.24 0.23 0.26 0.25 0.21 0.13 0.05 0.02 0.02 0.02 0.02 0.02 0.02 0.01 0.02 0.02 0.02 0.03 0.03 0.03 0.03 0.03 0.03 0.03 0.02 0.03 0.03 0.04 0.05 0.06 0.06 0.05 0.04 0.03 0.03
0.03 0.03 0.03 0.03 0.02 0.02 0.02 0.02 0.02 0.02 0.02 0.01 0.01 0.01 0.01 0.01 0.01 0.01 0.01 0.01 0.01 0.01 0.01 0.01 0.00 0.01 0.02 0.05 0.06 0.16 0.24 0.19 0.16 0.15 0.16 0.17 0.21 0.24 0.24 0.17 0.06 0.02 0.02 0.02 0.02 0.01 0.01 0.01 0.01 0.01 0.02 0.03 0.03 0.03 0.04 0.04 0.03 0.02 0.02 0.02 0.02 0.03 0.04 0.06 0.06 0.06 0.05 0.04 0.03
0.03 0.03 0.03 0.03 0.02 0.02 0.02 0.02 0.02 0.02 0.02 0.02 0.01 0.01 0.01 0.01 0.02 0.02 0.02 0.01 0.01 0.01 0.01 0.01 0.00 0.00 0.00 0.00 0.02 0.07 0.12 0.14 0.10 0.09 0.08 0.08 0.11 0.16 0.19 0.16 0.08 0.03 0.01 0.02 0.01 0.01 0.01 0.00 0.01 0.01 0.01 0.02 0.03 0.03 0.03 0.04 0.03 0.03 0.02 0.02 0.02 0.02 0.02 0.03 0.05 0.06 0.06 0.05 0.04
0.03 0.03 0.03 0.03 0.02 0.02 0.02 0.02 0.02 0.02 0.02 0.02 0.01 0.01 0.02 0.02 0.02 0.02 0.02 0.02 0.01 0.01 0.01 0.01 0.00 0.00 0.00 0.00 0.00 0.02 0.05 0.09 0.08 0.06 0.04 0.04 0.04 0.08 0.12 0.12 0.06 0.02 0.01 0.02 0.02 0.02 0.04 0.11 0.10 0.08 0.07 0.07 0.05 0.04 0.03 0.04 0.04 0.03 0.03 0.03 0.03 0.02 0.02 0.02 0.02 0.05 0.07 0.07 0.06
0.03 0.03 0.03 0.03 0.03 0.02 0.02 0.02 0.02 0.02 0.02 0.02 0.02 0.02 0.02 0.02 0.02 0.02 0.02 0.02 0.01 0.01 0.01 0.00 0.00 0.00 0.00 0.00 0.00 0.00 0.02 0.07 0.12 0.11 0.07 0.02 0.01 0.01 0.02 0.05 0.03 0.01 0.01 0.03 0.06 0.13 0.18 0.17 0.14 0.12 0.11 0.09 0.08 0.07 0.06 0.06 0.05 0.04 0.04 0.03 0.03 0.03 0.02 0.02 0.02 0.03 0.04 0.06 0.07
0.05 0.04 0.03 0.03 0.03 0.03 0.02 0.02 0.02 0.02 0.02 0.02 0.02 0.02 0.02 0.02 0.02 0.02 0.02 0.02 0.02 0.01 0.01 0.00 0.00 0.00 0.00 0.00 0.00 0.00 0.00 0.00 0.09 0.12 0.10 0.03 0.01 0.01 0.01 0.01 0.01 0.01 0.01 0.02 0.18 0.30 0.32 0.20 0.14 0.11 0.10 0.07 0.06 0.05 0.05 0.04 0.05 0.05 0.05 0.04 0.04 0.04 0.03 0.03 0.02 0.02 0.02 0.03 0.05
0.07 0.06 0.05 0.05 0.04 0.03 0.03 0.03 0.03 0.02 0.02 0.02 0.02 0.03 0.03 0.03 0.03 0.02 0.02 0.02 0.02 0.01 0.01 0.01 0.01 0.00 0.00 0.00 0.00 0.00 0.00 0.01 0.05 0.06 0.05 0.04 0.02 0.02 0.02 0.01 0.01 0.02 0.04 0.07 0.27 0.35 0.33 0.25 0.16 0.13 0.10 0.07 0.08 0.08 0.08 0.05 0.05 0.05 0.05 0.07 0.06 0.05 0.04 0.03 0.02 0.02 0.02 0.02 0.04
0.10 0.08 0.08 0.07 0.06 0.05 0.05 0.04 0.03 0.03 0.03 0.03 0.03 0.04 0.05 0.06 0.05 0.04 0.02 0.02 0.02 0.02 0.01 0.01 0.01 0.00 0.00 0.00 0.00 0.01 0.01 0.01 0.03 0.06 0.08 0.08 0.08 0.06 0.04 0.03 0.08 0.08 0.07 0.11 0.38 0.46 0.41 0.30 0.20 0.18 0.18 0.18 0.18 0.17 0.16 0.12 0.12 0.11 0.12 0.19 0.16 0.12 0.09 0.07 0.05 0.03 0.02 0.02 0.02
0.12 0.12 0.11 0.10 0.09 0.08 0.07 0.06 0.06 0.06 0.06 0.06 0.06 0.07 0.08 0.10 0.09 0.08 0.05 0.04 0.03 0.02 0.02 0.01 0.01 0.01 0.00 0.00 0.01 0.02 0.04 0.08 0.12 0.22 0.31 0.30 0.24 0.18 0.14 0.13 0.35 0.25 0.07 0.09 0.42 0.49 0.42 0.31 0.29 0.27 0.26 0.27 0.28 0.28 0.27 0.26 0.25 0.19 0.13 0.15 0.15 0.15 0.14 0.13 0.10 0.07 0.05 0.03 0.05
0.15 0.14 0.13 0.12 0.11 0.11 0.10 0.09 0.09 0.09 0.09 0.09 0.09 0.10 0.12 0.14 0.13 0.12 0.10 0.08 0.05 0.04 0.03 0.03 0.02 0.02 0.01 0.02 0.04 0.07 0.12 0.19 0.28 0.35 0.41 0.45 0.32 0.30 0.33 0.39 0.33 0.19 0.08 0.09 0.29 0.43 0.45 0.34 0.35 0.32 0.29 0.30 0.31 0.28 0.24 0.21 0.17 0.13 0.10 0.10 0.09 0.10 0.10 0.10 0.10 0.11 0.11 0.09 0.08
0.17 0.15 0.13 0.12 0.12 0.12 0.12 0.12 0.11 0.11 0.12 0.13 0.13 0.15 0.18 0.19 0.14 0.12 0.11 0.09 0.06 0.04 0.03 0.04 0.04 0.04 0.07 0.15 0.15 0.19 0.24 0.28 0.35 0.38 0.38 0.37 0.36 0.38 0.39 0.36 0.28 0.17 0.10 0.13 0.24 0.35 0.41 0.37 0.34 0.31 0.29 0.31 0.27 0.22 0.17 0.13 0.11 0.09 0.08 0.07 0.08 0.08 0.09 0.10 0.11 0.11 0.11 0.14 0.11
0.16 0.14 0.13 0.12 0.12 0.12 0.12 0.13 0.13 0.12 0.13 0.15 0.18 0.21 0.21 0.18 0.15 0.13 0.13 0.12 0.09 0.07 0.07 0.08 0.11 0.15 0.25 0.45 0.30 0.28 0.30 0.26 0.24 0.20 0.17 0.21 0.21 0.23 0.25 0.22 0.17 0.14 0.14 0.16 0.21 0.24 0.27 0.29 0.29 0.29 0.29 0.30 0.24 0.18 0.13 0.10 0.08 0.07 0.07 0.07 0.07 0.08 0.09 0.09 0.09 0.10 0.10 0.10 0.10
0.16 0.14 0.12 0.12 0.11 0.10 0.11 0.12 0.14 0.15 0.16 0.18 0.20 0.20 0.20 0.21 0.18 0.15 0.14 0.16 0.14 0.13 0.12 0.14 0.20 0.26 0.29 0.26 0.18 0.17 0.18 0.16 0.16 0.16 0.15 0.14 0.15 0.17 0.17 0.13 0.12 0.13 0.15 0.17 0.22 0.23 0.22 0.23 0.24 0.28 0.31 0.32 0.23 0.15 0.10 0.08 0.07 0.07 0.08 0.07 0.07 0.07 0.07 0.07 0.07 0.08 0.09 0.10 0.10
0.20 0.16 0.13 0.10 0.09 0.07 0.07 0.08 0.13 0.17 0.19 0.19 0.18 0.17 0.17 0.16 0.14 0.13 0.14 0.17 0.19 0.18 0.14 0.11 0.14 0.12 0.09 0.05 0.06 0.07 0.08 0.09 0.12 0.13 0.13 0.13 0.14 0.15 0.14 0.12 0.12 0.15 0.19 0.24 0.27 0.28 0.28 0.28 0.30 0.32 0.31 0.26 0.19 0.13 0.09 0.07 0.07 0.07 0.07 0.07 0.06 0.06 0.06 0.06 0.06 0.07 0.09 0.09 0.11
0.22 0.18 0.14 0.10 0.08 0.07 0.06 0.05 0.07 0.13 0.18 0.21 0.19 0.19 0.18 0.16 0.14 0.12 0.12 0.16 0.20 0.19 0.15 0.10 0.10 0.09 0.07 0.05 0.05 0.06 0.07 0.08 0.10 0.10 0.10 0.10 0.11 0.11 0.11 0.09 0.12 0.17 0.23 0.31 0.33 0.35 0.36 0.36 0.38 0.34 0.27 0.22 0.18 0.13 0.10 0.10 0.08 0.07 0.07 0.06 0.06 0.06 0.06 0.06 0.07 0.08 0.09 0.11 0.14
0.17 0.14 0.11 0.09 0.08 0.07 0.06 0.04 0.04 0.08 0.14 0.21 0.21 0.21 0.20 0.19 0.18 0.15 0.12 0.14 0.18 0.21 0.20 0.13 0.11 0.10 0.08 0.05 0.06 0.06 0.07 0.09 0.09 0.08 0.08 0.08 0.08 0.08 0.08 0.09 0.13 0.19 0.27 0.34 0.38 0.39 0.39 0.39 0.38 0.34 0.27 0.22 0.19 0.16 0.14 0.14 0.12 0.10 0.09 0.07 0.07 0.07 0.06 0.06 0.06 0.09 0.12 0.14 0.17
0.09 0.08 0.07 0.06 0.06 0.06 0.05 0.04 0.04 0.04 0.07 0.14 0.20 0.20 0.19 0.21 0.22 0.20 0.16 0.15 0.19 0.25 0.28 0.24 0.15 0.11 0.10 0.08 0.07 0.07 0.07 0.08 0.08 0.07 0.07 0.07 0.07 0.08 0.09 0.12 0.15 0.21 0.26 0.30 0.36 0.39 0.41 0.42 0.41 0.37 0.32 0.25 0.20 0.18 0.17 0.15 0.14 0.13 0.12 0.11 0.11 0.10 0.09 0.07 0.08 0.11 0.14 0.15 0.17
MSLP
1007.46 1007.22 1007.02 1006.78 1006.54 1006.30 1005.98 1005.62 1005.34 1005.02 1004.58 1004.02 1003.34 1002.74 1002.18 1001.62 1001.06 1000.62 1000.22 999.78 999.34 998.98 998.70 998.42 998.26 998.26 998.22 998.02 997.70 997.46 997.34 997.34 997.34 997.34 997.22 996.98 996.94 997.22 997.50 997.46 997.42 997.46 997.66 998.06 998.42 998.78 999.18 999.46 999.74 1000.02 1000.26 1000.50 1000.74 1001.02 1001.26 1001.46 1001.74 1001.94 1002.14 1002.26 1002.34 1002.50 1002.58 1002.62 1002.66 1002.74 1002.82 1002.86 1002.94
1007.18 1007.02 1006.86 1006.66 1006.46 1006.22 1005.90 1005.50 1005.14 1004.82 1004.50 1004.06 1003.50 1002.98 1002.42 1001.82 1001.22 1000.66 1000.26 999.90 999.38 998.94 998.66 998.38 998.10 998.14 998.34 998.34 997.98 997.58 997.22 997.06 997.06 997.10 997.06 996.98 997.06 997.22 997.34 997.30 997.22 997.22 997.38 997.78 998.14 998.62 999.02 999.26 999.46 999.70 1000.02 1000.34 1000.62 1000.86 1001.14 1001.34 1001.58 1001.78 1002.02 1002.18 1002.26 1002.38 1002.50 1002.62 1002.58 1002.66 1002.78 1002.82 1002.82
1006.98 1006.82 1006.66 1006.42 1006.22 1005.94 1005.62 1005.26 1004.94 1004.62 1004.34 1004.02 1003.62 1003.18 1002.54 1001.90 1001.22 1000.70 1000.30 999.90 999.38 998.98 998.66 998.34 998.02 998.02 998.22 998.34 998.10 997.70 997.30 997.06 997.02 996.98 996.94 996.94 997.14 997.26 997.22 997.10 996.98 997.06 997.30 997.62 997.98 998.46 998.82 999.02 999.22 999.46 999.74 1000.14 1000.42 1000.66 1000.94 1001.22 1001.42 1001.70 1001.94 1002.06 1002.18 1002.30 1002.46 1002.54 1002.50 1002.58 1002.70 1002.78 1002.78
1006.82 1006.66 1006.42 1006.18 1005.94 1005.70 1005.42 1005.14 1004.78 1004.46 1004.18 1003.90 1003.50 1003.06 1002.50 1001.82 1001.22 1000.74 1000.34 999.90 999.50 999.02 998.54 998.18 997.86 997.78 997.94 998.02 997.86 997.58 997.30 997.06 996.94 996.90 996.94 996.94 997.06 997.06 996.98 996.94 996.82 996.94 997.26 997.62 998.06 998.50 998.78 998.94 999.10 999.26 999.50 999.82 1000.18 1000.50 1000.78 1001.06 1001.34 1001.58 1001.78 1001.94 1002.06 1002.18 1002.30 1002.34 1002.34 1002.46 1002.58 1002.66 1002.70
1006.54 1006.42 1006.22 1006.02 1005.74 1005.50 1005.26 1005.02 1004.66 1004.30 1003.98 1003.70 1003.34 1002.82 1002.26 1001.74 1001.22 1000.78 1000.38 999.98 999.58 999.06 998.50 998.06 997.70 997.54 997.58 997.62 997.50 997.34 997.18 996.98 996.90 996.90 996.94 996.94 996.94 996.90 996.82 996.86 996.94 997.06 997.38 997.82 998.34 998.70 998.94 999.06 999.10 999.18 999.34 999.66 999.98 1000.22 1000.50 1000.86 1001.22 1001.46 1001.62 1001.82 1001.94 1002.06 1002.14 1002.22 1002.22 1002.30 1002.38 1002.50 1002.62
1006.34 1006.22 1006.06 1005.86 1005.62 1005.34 1005.06 1004.70 1004.38 1004.06 1003.78 1003.50 1003.10 1002.66 1002.14 1001.66 1001.18 1000.78 1000.34 999.98 999.62 999.22 998.74 998.22 997.66 997.34 997.26 997.30 997.22 997.10 996.94 996.90 996.82 996.78 996.82 996.82 996.78 996.82 996.90 996.98 997.14 997.38 997.74 998.22 998.62 998.86 998.98 999.14 999.18 999.18 999.26 999.62 999.78 1000.02 1000.34 1000.78 1001.06 1001.34 1001.54 1001.74 1001.82 1001.94 1002.02 1002.10 1002.06 1002.14 1002.22 1002.34 1002.50
1006.22 1006.06 1005.82 1005.62 1005.42 1005.10 1004.78 1004.42 1004.06 1003.78 1003.50 1003.22 1002.82 1002.42 1001.98 1001.58 1001.18 1000.78 1000.38 1000.06 999.66 999.26 998.78 998.22 997.58 997.10 996.94 997.02 997.06 996.94 996.78 996.70 996.66 996.70 996.70 996.74 996.78 996.82 996.94 997.06 997.30 997.58 997.94 998.38 998.74 999.02 999.18 999.22 999.26 999.22 999.26 999.50 999.78 999.98 1000.22 1000.62 1000.94 1001.18 1001.34 1001.54 1001.70 1001.82 1001.94 1001.90 1001.94 1002.02 1002.10 1002.22 1002.34
1006.14 1005.86 1005.62 1005.34 1005.06 1004.78 1004.42 1004.06 1003.70 1003.38 1003.06 1002.78 1002.46 1002.10 1001.78 1001.42 1001.02 1000.62 1000.26 999.94 999.50 999.10 998.66 998.06 997.30 996.78 996.66 996.78 996.90 996.78 996.62 996.46 996.34 996.34 996.34 996.34 996.50 996.66 996.82 997.06 997.34 997.62 998.02 998.50 998.86 999.14 999.34 999.42 999.34 999.22 999.22 999.46 999.70 999.94 1000.18 1000.46 1000.78 1001.02 1001.22 1001.34 1001.54 1001.70 1001.78 1001.78 1001.82 1001.94 1001.98 1002.06 1002.22
1005.94 1005.62 1005.34 1005.02 1004.66 1004.34 1003.98 1003.62 1003.22 1002.94 1002.62 1002.34 1002.06 1001.78 1001.50 1001.14 1000.78 1000.38 1000.06 999.62 999.22 998.82 998.42 997.90 997.18 996.78 996.66 996.66 996.70 996.66 996.50 996.22 996.02 995.94 995.90 995.94 996.14 996.38 996.66 996.98 997.22 997.58 998.02 998.50 998.90 999.22 999.42 999.54 999.46 999.26 999.22 999.38 999.62 999.86 1000.06 1000.34 1000.66 1000.94 1001.06 1001.22 1001.42 1001.54 1001.62 1001.66 1001.74 1001.82 1001.90 1001.98 1002.14
1005.66 1005.30 1004.94 1004.58 1004.22 1003.86 1003.50 1003.14 1002.78 1002.46 1002.10 1001.82 1001.62 1001.42 1001.18 1000.86 1000.50 1000.10 999.74 999.34 998.94 998.54 998.18 997.74 997.26 996.94 996.66 996.42 996.42 996.42 996.34 996.14 995.94 995.82 995.78 995.78 995.90 996.10 996.38 996.74 997.06 997.46 997.86 998.30 998.78 999.14 999.42 999.50 999.38 999.22 999.22 999.38 999.58 999.78 999.98 1000.26 1000.58 1000.82 1001.02 1001.10 1001.26 1001.38 1001.50 1001.54 1001.62 1001.74 1001.82 1001.94 1002.06
1005.38 1005.02 1004.66 1004.26 1003.82 1003.46 1003.10 1002.74 1002.34 1001.94 1001.66 1001.42 1001.22 1001.06 1000.78 1000.50 1000.06 999.70 999.38 999.06 998.70 998.30 997.94 997.54 997.22 996.94 996.58 996.26 996.18 996.22 996.26 996.22 996.02 995.78 995.70 995.74 995.74 995.90 996.14 996.50 996.90 997.30 997.70 998.14 998.66 999.02 999.22 999.26 999.14 999.06 999.22 999.38 999.58 999.78 999.94 1000.18 1000.50 1000.78 1000.94 1000.98 1001.10 1001.22 1001.34 1001.42 1001.50 1001.62 1001.78 1001.86 1002.02
1005.14 1004.74 1004.38 1004.02 1003.62 1003.22 1002.78 1002.34 1001.94 1001.54 1001.26 1001.06 1000.90 1000.70 1000.42 1000.06 999.70 999.34 999.06 998.78 998.38 998.02 997.62 997.30 997.02 996.70 996.34 996.06 995.94 995.94 996.02 995.94 995.78 995.58 995.50 995.50 995.50 995.66 995.98 996.34 996.82 997.26 997.70 998.10 998.42 998.66 998.74 998.74 998.74 998.82 999.06 999.30 999.50 999.70 999.90 1000.10 1000.34 1000.66 1000.82 1000.90 1000.98 1001.14 1001.26 1001.34 1001.38 1001.50 1001.62 1001.78 1001.98
1004.94 1004.50 1004.14 1003.78 1003.42 1002.98 1002.50 1002.06 1001.62 1001.22 1000.94 1000.66 1000.46 1000.26 1000.02 999.62 999.30 998.98 998.70 998.42 998.10 997.74 997.34 996.94 996.66 996.26 995.86 995.58 995.54 995.62 995.62 995.54 995.42 995.34 995.34 995.30 995.38 995.62 995.98 996.34 996.78 997.22 997.62 997.90 998.02 998.06 998.14 998.26 998.38 998.58 998.86 999.18 999.38 999.58 999.74 999.94 1000.22 1000.50 1000.70 1000.86 1000.94 1001.02 1001.10 1001.22 1001.26 1001.34 1001.50 1001.66 1001.90
1004.74 1004.34 1003.94 1003.58 1003.22 1002.78 1002.30 1001.78 1001.34 1000.94 1000.62 1000.30 1000.02 999.78 999.46 999.10 998.82 998.58 998.34 998.14 997.86 997.54 997.22 996.86 996.46 995.94 995.46 995.14 995.18 995.26 995.30 995.22 995.18 995.18 995.14 995.14 995.22 995.50 995.82 996.18 996.50 996.86 997.14 997.34 997.46 997.62 997.78 997.98 998.22 998.42 998.70 999.06 999.22 999.38 999.62 999.82 1000.02 1000.30 1000.54 1000.74 1000.82 1000.90 1000.94 1001.06 1001.10 1001.22 1001.38 1001.54 1001.78
1004.50 1004.06 1003.74 1003.38 1002.98 1002.54 1002.10 1001.58 1001.14 1000.78 1000.42 1000.06 999.70 999.38 999.02 998.62 998.30 998.10 998.02 997.86 997.70 997.50 997.26 996.90 996.38 995.94 995.54 995.26 995.18 995.18 995.06 994.86 994.78 994.78 994.86 994.94 995.02 995.26 995.58 995.86 996.22 996.50 996.70 996.86 997.06 997.34 997.58 997.86 998.06 998.30 998.54 998.82 999.06 999.22 999.46 999.70 999.90 1000.10 1000.38 1000.62 1000.70 1000.74 1000.82 1000.94 1001.02 1001.10 1001.22 1001.42 1001.62
1004.26 1003.82 1003.50 1003.14 1002.74 1002.34 1001.90 1001.46 1000.98 1000.62 1000.26 999.90 999.58 999.22 998.82 998.38 997.94 997.70 997.62 997.58 997.50 997.42 997.22 996.82 996.38 996.14 995.90 995.50 995.26 995.10 994.98 994.82 994.66 994.58 994.58 994.66 994.78 995.02 995.26 995.50 995.86 996.14 996.34 996.58 996.86 997.18 997.46 997.74 997.94 998.18 998.34 998.62 998.78 999.02 999.26 999.50 999.74 999.98 1000.22 1000.50 1000.62 1000.66 1000.74 1000.86 1000.94 1000.98 1001.06 1001.26 1001.50
1004.06 1003.62 1003.22 1002.90 1002.50 1002.06 1001.62 1001.22 1000.82 1000.46 1000.10 999.78 999.46 999.14 998.78 998.42 997.94 997.54 997.34 997.26 997.30 997.22 996.94 996.66 996.42 996.34 996.18 995.78 995.42 995.18 995.02 994.82 994.66 994.50 994.42 994.34 994.50 994.78 995.02 995.26 995.54 995.78 996.06 996.34 996.66 997.02 997.34 997.54 997.78 998.02 998.22 998.50 998.66 998.86 999.06 999.34 999.54 999.78 1000.06 1000.34 1000.50 1000.58 1000.66 1000.78 1000.86 1000.90 1000.98 1001.14 1001.34
1003.82 1003.38 1002.98 1002.62 1002.22 1001.78 1001.34 1000.94 1000.58 1000.22 999.94 999.62 999.34 999.06 998.78 998.50 998.14 997.66 997.30 997.06 997.06 996.94 996.78 996.62 996.50 996.38 996.22 995.86 995.50 995.34 995.14 994.90 994.70 994.54 994.38 994.22 994.38 994.70 995.06 995.30 995.50 995.74 995.94 996.18 996.46 996.74 997.06 997.34 997.62 997.94 998.26 998.50 998.66 998.74 998.94 999.14 999.34 999.62 999.94 1000.18 1000.34 1000.46 1000.58 1000.74 1000.78 1000.82 1000.90 1001.02 1001.22
1003.62 1003.18 1002.74 1002.30 1001.94 1001.50 1001.10 1000.70 1000.34 999.98 999.66 999.46 999.22 998.94 998.74 998.54 998.26 997.90 997.50 997.14 996.98 996.90 996.78 996.66 996.46 996.22 995.98 995.70 995.38 995.26 995.22 995.14 994.94 994.74 994.54 994.42 994.62 994.94 995.26 995.46 995.62 995.70 995.82 996.02 996.22 996.42 996.74 997.10 997.42 997.78 998.14 998.38 998.50 998.66 998.78 999.02 999.22 999.50 999.74 999.94 1000.18 1000.34 1000.50 1000.66 1000.74 1000.78 1000.78 1000.94 1001.06
1003.38 1002.94 1002.50 1002.06 1001.66 1001.26 1000.82 1000.46 1000.06 999.70 999.42 999.22 999.02 998.78 998.62 998.42 998.26 997.98 997.62 997.26 997.02 996.82 996.66 996.50 996.26 995.94 995.62 995.34 995.10 994.86 994.78 995.02 994.94 994.78 994.66 994.66 994.78 995.02 995.22 995.34 995.46 995.54 995.62 995.82 995.98 996.22 996.54 996.94 997.22 997.58 997.90 998.10 998.26 998.50 998.70 998.94 999.10 999.34 999.58 999.78 1000.06 1000.22 1000.38 1000.50 1000.66 1000.74 1000.78 1000.82 1000.98
1003.18 1002.78 1002.34 1001.90 1001.50 1001.06 1000.66 1000.22 999.82 999.46 999.14 998.94 998.74 998.58 998.42 998.22 998.10 997.90 997.58 997.22 996.98 996.74 996.42 996.10 995.86 995.54 995.22 994.90 994.62 994.34 994.26 994.38 994.58 994.66 994.70 994.74 994.82 994.86 994.86 994.98 995.10 995.30 995.46 995.58 995.78 996.02 996.34 996.70 997.06 997.34 997.62 997.86 998.06 998.30 998.54 998.78 999.02 999.22 999.42 999.62 999.90 1000.10 1000.26 1000.38 1000.58 1000.66 1000.74 1000.78 1000.94
1003.02 1002.66 1002.22 1001.78 1001.34 1000.94 1000.50 1000.06 999.62 999.22 998.86 998.62 998.42 998.34 998.22 998.06 997.94 997.74 997.50 997.22 996.94 996.58 996.22 995.90 995.62 995.34 995.10 994.78 994.50 994.26 994.18 994.10 994.26 994.42 994.58 994.66 994.74 994.66 994.50 994.66 994.82 994.98 995.14 995.34 995.58 995.86 996.18 996.50 996.86 997.18 997.50 997.74 997.94 998.18 998.42 998.66 998.90 999.10 999.30 999.50 999.74 999.98 1000.18 1000.34 1000.50 1000.62 1000.70 1000.78 1000.86
1002.94 1002.54 1002.14 1001.70 1001.22 1000.82 1000.38 999.94 999.50 999.06 998.66 998.26 998.06 997.94 997.90 997.82 997.70 997.54 997.38 997.14 996.82 996.50 996.14 995.82 995.58 995.42 995.22 995.06 994.90 994.74 994.62 994.46 994.34 994.42 994.54 994.58 994.54 994.38 994.26 994.38 994.58 994.74 994.90 995.10 995.42 995.70 996.02 996.34 996.66 997.02 997.34 997.62 997.86 998.06 998.30 998.54 998.78 999.02 999.22 999.38 999.62 999.90 1000.06 1000.22 1000.34 1000.46 1000.58 1000.70 1000.86
1002.90 1002.46 1002.06 1001.58 1001.10 1000.66 1000.22 999.78 999.38 998.94 998.46 998.02 997.66 997.54 997.54 997.50 997.46 997.34 997.22 996.98 996.70 996.42 996.10 995.82 995.62 995.46 995.42 995.38 995.34 995.34 995.22 994.98 994.78 994.66 994.58 994.50 994.38 994.22 994.06 994.14 994.34 994.50 994.66 994.86 995.22 995.50 995.86 996.18 996.46 996.78 997.14 997.46 997.70 997.94 998.18 998.42 998.66 998.94 999.10 999.30 999.54 999.78 999.94 1000.06 1000.14 1000.26 1000.42 1000.66 1000.86
1002.78 1002.34 1001.94 1001.46 1000.98 1000.54 1000.10 999.66 999.26 998.82 998.34 997.82 997.42 997.22 997.18 997.18 997.18 997.14 996.98 996.78 996.54 996.30 996.02 995.78 995.58 995.50 995.46 995.50 995.50 995.54 995.50 995.34 994.94 994.66 994.50 994.34 994.26 994.18 994.14 994.14 994.22 994.22 994.38 994.70 995.22 995.62 995.86 996.06 996.30 996.58 996.94 997.30 997.54 997.78 998.06 998.30 998.54 998.78 998.98 999.22 999.42 999.62 999.78 999.86 999.98 1000.14 1000.34 1000.58 1000.78
1002.70 1002.22 1001.74 1001.30 1000.86 1000.38 999.94 999.50 999.10 998.66 998.22 997.70 997.26 996.98 996.86 996.82 996.86 996.78 996.70 996.58 996.34 996.14 995.94 995.74 995.54 995.42 995.34 995.34 995.34 995.38 995.42 995.26 994.94 994.58 994.30 994.18 994.22 994.26 994.22 994.22 994.14 994.14 994.34 994.74 995.26 995.62 995.86 996.06 996.34 996.54 996.78 997.06 997.34 997.66 997.94 998.18 998.42 998.66 998.86 999.06 999.26 999.46 999.62 999.74 999.86 1000.06 1000.26 1000.54 1000.74
1002.62 1002.10 1001.62 1001.18 1000.70 1000.22 999.78 999.34 998.94 998.50 998.02 997.50 997.06 996.74 996.58 996.54 996.54 996.50 996.38 996.26 996.14 995.98 995.82 995.62 995.42 995.26 995.18 995.10 995.06 995.06 995.14 995.06 994.78 994.46 994.18 994.02 994.06 994.22 994.30 994.22 994.14 994.10 994.34 994.78 995.22 995.58 995.90 996.14 996.42 996.66 996.86 996.98 997.30 997.58 997.82 998.06 998.30 998.50 998.70 998.94 999.18 999.34 999.50 999.62 999.78 1000.02 1000.26 1000.50 1000.70
1002.50 1002.06 1001.58 1001.06 1000.54 1000.06 999.62 999.18 998.74 998.26 997.78 997.30 996.82 996.46 996.26 996.22 996.22 996.22 996.14 996.02 995.90 995.78 995.62 995.42 995.18 995.02 994.86 994.70 994.66 994.62 994.66 994.62 994.50 994.30 994.02 993.74 993.74 993.98 994.22 994.30 994.14 994.10 994.34 994.86 995.26 995.62 995.90 996.18 996.50 996.78 996.98 997.14 997.30 997.50 997.70 997.94 998.18 998.42 998.66 998.90 999.10 999.26 999.42 999.62 999.78 999.98 1000.22 1000.50 1000.70
1002.42 1001.94 1001.46 1000.94 1000.42 999.94 999.46 998.98 998.50 998.06 997.58 997.06 996.50 996.10 995.94 995.94 995.94 995.90 995.82 995.74 995.62 995.50 995.34 995.10 994.86 994.66 994.38 994.22 994.14 994.10 994.14 994.22 994.22 994.14 993.94 993.66 993.54 993.74 993.98 994.14 994.06 994.22 994.62 994.98 995.34 995.70 996.06 996.30 996.62 996.94 997.18 997.30 997.30 997.46 997.78 998.06 998.22 998.38 998.66 998.82 999.02 999.22 999.38 999.62 999.78 999.98 1000.22 1000.50 1000.66
1002.34 1001.86 1001.34 1000.82 1000.34 999.82 999.34 998.82 998.34 997.90 997.38 996.78 996.22 995.78 995.58 995.58 995.58 995.54 995.50 995.42 995.34 995.18 994.98 994.78 994.50 994.18 993.90 993.78 993.70 993.66 993.74 993.82 993.94 994.02 993.98 993.82 993.62 993.58 993.78 993.94 994.02 994.30 994.78 995.22 995.54 995.94 996.26 996.50 996.78 997.06 997.22 997.34 997.42 997.50 997.70 997.98 998.22 998.38 998.54 998.74 998.94 999.14 999.34 999.54 999.78 1000.02 1000.22 1000.42 1000.62
1002.30 1001.78 1001.30 1000.74 1000.22 999.70 999.22 998.74 998.26 997.78 997.22 996.66 996.02 995.54 995.30 995.26 995.22 995.22 995.14 995.06 994.90 994.78 994.62 994.46 994.26 993.94 993.54 993.38 993.34 993.30 993.30 993.42 993.62 993.82 993.90 993.82 993.70 993.62 993.70 993.82 993.98 994.42 994.98 995.50 995.86 996.22 996.50 996.70 996.86 997.06 997.22 997.38 997.42 997.46 997.58 997.86 998.06 998.30 998.50 998.66 998.90 999.10 999.34 999.50 999.70 999.94 1000.14 1000.34 1000.54
1002.30 1001.78 1001.22 1000.66 1000.14 999.66 999.22 998.78 998.22 997.70 997.10 996.50 995.82 995.30 994.98 994.90 994.90 994.86 994.78 994.66 994.50 994.34 994.22 994.10 993.86 993.58 993.34 993.18 993.06 992.94 992.94 993.06 993.30 993.54 993.70 993.74 993.70 993.66 993.66 993.78 994.14 994.74 995.26 995.66 996.06 996.38 996.66 996.86 997.02 997.18 997.30 997.46 997.58 997.58 997.66 997.94 998.18 998.34 998.50 998.70 998.94 999.14 999.38 999.58 999.70 999.86 1000.02 1000.26 1000.50
1002.22 1001.74 1001.22 1000.66 1000.22 999.78 999.30 998.78 998.26 997.70 997.06 996.34 995.62 995.06 994.78 994.66 994.66 994.58 994.50 994.34 994.10 993.90 993.62 993.42 993.22 993.14 993.06 992.90 992.78 992.74 992.78 992.90 993.06 993.34 993.58 993.70 993.74 993.74 993.78 994.06 994.50 995.10 995.50 995.70 996.06 996.46 996.78 996.98 997.22 997.34 997.46 997.66 997.86 997.90 998.02 998.34 998.62 998.82 999.06 999.26 999.58 999.86 1000.06 1000.10 1000.06 1000.02 1000.06 1000.14 1000.34
1002.30 1001.82 1001.34 1000.90 1000.42 999.94 999.46 998.90 998.34 997.74 997.10 996.42 995.74 995.14 994.74 994.58 994.50 994.46 994.34 994.22 993.98 993.62 993.14 992.78 992.66 992.66 992.66 992.54 992.50 992.50 992.62 992.82 993.02 993.22 993.50 993.62 993.78 993.94 994.18 994.50 995.06 995.54 995.78 995.78 996.10 996.50 996.82 997.10 997.34 997.50 997.66 997.94 998.18 998.34 998.50 998.82 999.10 999.34 999.54 999.78 1000.06 1000.30 1000.50 1000.66 1000.74 1000.70 1000.58 1000.38 1000.38
1002.58 1002.06 1001.58 1001.06 1000.62 1000.10 999.58 999.02 998.46 997.86 997.22 996.66 996.10 995.62 995.18 994.86 994.82 994.74 994.58 994.34 993.98 993.50 992.94 992.42 992.22 992.26 992.30 992.26 992.30 992.34 992.46 992.78 992.94 993.18 993.42 993.62 993.86 994.22 994.66 995.06 995.54 995.94 996.10 996.02 996.18 996.50 996.94 997.22 997.46 997.62 997.82 998.10 998.34 998.54 998.78 999.06 999.34 999.62 999.86 1000.14 1000.34 1000.54 1000.66 1000.78 1000.98 1001.18 1001.22 1001.10 1000.98
1002.86 1002.34 1001.78 1001.22 1000.74 1000.22 999.70 999.18 998.62 998.06 997.50 996.98 996.54 996.18 995.82 995.50 995.34 995.14 994.86 994.50 993.94 993.38 992.82 992.34 992.26 992.34 992.46 992.38 992.66 992.78 992.86 993.10 993.14 993.30 993.50 993.78 994.10 994.62 995.14 995.62 996.02 996.30 996.38 996.30 996.30 996.54 996.98 997.34 997.50 997.66 997.86 998.10 998.38 998.70 999.02 999.34 999.62 999.90 1000.14 1000.38 1000.58 1000.78 1000.94 1001.06 1001.30 1001.50 1001.58 1001.62 1001.58
1002.94 1002.42 1001.90 1001.34 1000.90 1000.38 999.86 999.34 998.78 998.26 997.78 997.38 996.98 996.66 996.34 996.06 995.78 995.50 995.22 994.78 994.18 993.54 993.10 992.90 992.90 993.02 993.10 993.18 993.54 993.78 993.82 993.86 993.82 993.94 994.22 994.50 994.78 995.14 995.54 995.94 996.26 996.50 996.54 996.58 996.46 996.66 997.02 997.34 997.50 997.66 997.90 998.14 998.50 998.90 999.22 999.58 999.90 1000.14 1000.34 1000.62 1000.82 1001.02 1001.22 1001.46 1001.62 1001.78 1001.86 1001.94 1001.94
1002.94 1002.50 1002.06 1001.58 1001.06 1000.62 1000.06 999.54 999.06 998.58 998.18 997.86 997.50 997.14 996.82 996.54 996.26 995.98 995.62 995.22 994.78 994.34 994.06 993.90 993.90 993.98 994.10 994.22 994.42 994.66 994.78 994.78 994.86 995.02 995.22 995.46 995.58 995.70 995.90 996.14 996.42 996.54 996.62 996.70 996.78 996.94 997.10 997.34 997.50 997.74 998.02 998.30 998.66 999.06 999.42 999.78 1000.06 1000.34 1000.62 1000.90 1001.14 1001.34 1001.54 1001.70 1001.86 1002.06 1002.18 1002.26 1002.26
1003.10 1002.66 1002.26 1001.78 1001.34 1000.82 1000.34 999.86 999.42 999.06 998.70 998.34 998.02 997.62 997.34 997.06 996.78 996.50 996.18 995.78 995.50 995.22 995.06 994.94 994.86 994.90 994.90 994.78 994.86 995.10 995.34 995.50 995.78 996.02 996.22 996.26 996.34 996.42 996.50 996.54 996.66 996.70 996.66 996.78 997.10 997.30 997.38 997.50 997.70 997.98 998.22 998.50 998.86 999.22 999.58 999.94 1000.26 1000.54 1000.86 1001.14 1001.38 1001.62 1001.82 1002.02 1002.18 1002.34 1002.46 1002.54 1002.54
1003.34 1002.90 1002.50 1002.02 1001.58 1001.10 1000.66 1000.26 999.90 999.58 999.26 998.94 998.58 998.22 997.90 997.62 997.34 997.06 996.74 996.38 996.10 995.94 995.82 995.74 995.70 995.66 995.50 995.34 995.34 995.66 996.06 996.38 996.74 996.94 997.02 997.06 997.14 997.18 997.14 997.06 997.06 997.06 997.06 997.10 997.34 997.50 997.62 997.70 997.94 998.18 998.42 998.66 999.06 999.42 999.74 1000.06 1000.42 1000.78 1001.06 1001.34 1001.62 1001.86 1002.10 1002.34 1002.50 1002.66 1002.78 1002.82 1002.86
1003.50 1003.06 1002.66 1002.22 1001.82 1001.42 1001.06 1000.70 1000.38 1000.10 999.78 999.50 999.18 998.86 998.50 998.14 997.86 997.54 997.26 996.98 996.70 996.50 996.46 996.46 996.42 996.34 996.18 996.06 996.22 996.50 996.94 997.34 997.62 997.70 997.70 997.70 997.70 997.66 997.62 997.62 997.62 997.62 997.66 997.74 997.82 997.90 997.94 997.98 998.14 998.34 998.54 998.82 999.26 999.62 999.94 1000.22 1000.58 1000.98 1001.34 1001.62 1001.86 1002.14 1002.42 1002.66 1002.86 1003.02 1003.14 1003.22 1003.30
Thickness
5459 5461 5463 5465 5467 5470 5473 5475 5478 5481 5485 5490 5496 5502 5507 5513 5517 5523 5528 5534 5540 5547 5553 5558 5564 5568 5574 5582 5588 5592 5596 5602 5607 5611 5614 5619 5623 5626 5627 5631 5634 5636 5637 5637 5637 5635 5634 5635 5637 5639 5643 5644 5645 5645 5644 5645 5645 5647 5648 5649 5651 5652 5653 5656 5658 5659 5661 5663 5664
5458 5459 5460 5462 5464 5466 5469 5472 5474 5477 5481 5485 5489 5495 5501 5507 5513 5519 5522 5527 5533 5541 5547 5552 5560 5563 5567 5573 5579 5586 5594 5601 5604 5607 5609 5613 5617 5621 5623 5626 5630 5633 5634 5635 5635 5632 5631 5632 5634 5637 5639 5641 5641 5642 5641 5642 5642 5644 5645 5646 5648 5649 5650 5652 5654 5657 5658 5660 5661
5456 5457 5459 5460 5462 5465 5467 5470 5473 5475 5478 5481 5485 5490 5495 5502 5509 5515 5518 5522 5528 5535 5541 5547 5553 5558 5562 5565 5570 5578 5587 5594 5600 5604 5606 5610 5613 5616 5619 5623 5627 5629 5630 5632 5631 5629 5628 5629 5631 5634 5636 5638 5639 5639 5638 5639 5640 5641 5642 5644 5645 5646 5647 5649 5652 5653 5655 5657 5658
5454 5456 5458 5459 5461 5463 5464 5466 5469 5472 5475 5478 5482 5487 5492 5499 5505 5510 5514 5517 5523 5530 5537 5543 5549 5554 5558 5562 5565 5573 5582 5589 5595 5599 5603 5606 5608 5612 5616 5619 5623 5625 5627 5626 5625 5623 5623 5626 5628 5631 5634 5635 5636 5636 5636 5636 5637 5638 5640 5640 5642 5643 5645 5647 5649 5651 5653 5654 5655
5454 5454 5456 5457 5459 5460 5462 5463 5467 5470 5474 5477 5481 5486 5491 5495 5500 5505 5508 5513 5518 5525 5532 5540 5547 5552 5556 5562 5565 5570 5576 5584 5589 5594 5597 5600 5604 5609 5613 5616 5617 5620 5621 5619 5617 5617 5619 5622 5625 5627 5630 5632 5633 5633 5634 5634 5634 5635 5636 5637 5639 5641 5643 5645 5647 5649 5650 5653 5654
5453 5453 5454 5455 5456 5458 5461 5463 5466 5470 5474 5476 5480 5485 5489 5493 5497 5501 5506 5510 5515 5520 5527 5536 5545 5551 5556 5561 5565 5570 5574 5580 5585 5590 5594 5597 5601 5605 5609 5612 5613 5613 5612 5611 5610 5612 5615 5618 5620 5623 5626 5628 5630 5631 5631 5631 5632 5632 5633 5635 5637 5638 5640 5643 5645 5647 5649 5650 5652
5451 5452 5453 5454 5455 5458 5461 5464 5467 5471 5474 5477 5480 5484 5487 5491 5494 5498 5503 5506 5511 5517 5525 5533 5544 5551 5556 5559 5564 5569 5575 5580 5585 5588 5592 5596 5600 5602 5605 5607 5607 5606 5604 5604 5605 5607 5609 5612 5616 5620 5622 5624 5626 5628 5629 5629 5629 5630 5632 5633 5634 5636 5638 5641 5643 5645 5647 5649 5650
5449 5451 5452 5454 5456 5459 5462 5466 5470 5472 5475 5478 5480 5483 5486 5489 5493 5497 5501 5505 5510 5517 5525 5533 5544 5552 5557 5560 5563 5569 5576 5581 5585 5589 5593 5595 5598 5599 5600 5600 5602 5602 5601 5600 5600 5602 5605 5607 5611 5615 5619 5621 5623 5624 5625 5627 5627 5628 5630 5632 5633 5634 5636 5638 5640 5642 5644 5647 5648
5448 5450 5452 5455 5458 5461 5465 5469 5472 5474 5477 5479 5481 5482 5484 5488 5492 5496 5500 5505 5511 5518 5525 5533 5542 5550 5556 5560 5562 5569 5577 5582 5584 5586 5588 5592 5594 5595 5596 5596 5598 5598 5597 5598 5598 5599 5600 5603 5607 5612 5615 5618 5619 5620 5622 5624 5625 5627 5628 5629 5631 5633 5634 5636 5639 5640 5642 5644 5646
5448 5451 5453 5456 5460 5464 5467 5471 5474 5476 5479 5480 5481 5482 5484 5487 5492 5497 5501 5505 5511 5519 5525 5532 5538 5547 5555 5561 5562 5567 5573 5580 5582 5584 5586 5590 5593 5595 5596 5598 5597 5597 5596 5597 5597 5597 5599 5601 5605 5608 5610 5613 5615 5617 5620 5622 5623 5624 5625 5627 5629 5630 5632 5634 5636 5638 5639 5641 5643
5449 5451 5454 5458 5462 5466 5469 5472 5475 5478 5480 5481 5482 5483 5485 5489 5493 5498 5502 5507 5513 5520 5527 5532 5537 5543 5551 5558 5560 5563 5567 5571 5575 5579 5584 5588 5591 5594 5596 5597 5597 5597 5597 5596 5597 5598 5599 5601 5604 5605 5607 5609 5612 5614 5618 5619 5621 5621 5622 5625 5627 5629 5630 5633 5635 5636 5638 5639 5640
5449 5452 5456 5459 5462 5466 5471 5474 5477 5480 5482 5483 5483 5485 5488 5493 5496 5500 5504 5509 5515 5522 5529 5534 5539 5545 5550 5555 5559 5562 5566 5572 5575 5579 5583 5587 5590 5594 5596 5596 5596 5595 5595 5596 5597 5598 5599 5601 5603 5605 5607 5609 5610 5613 5616 5618 5618 5619 5620 5622 5624 5626 5628 5630 5633 5634 5635 5636 5637
5449 5453 5456 5460 5463 5468 5471 5475 5478 5481 5483 5485 5485 5488 5493 5497 5500 5503 5507 5511 5518 5525 5531 5537 5543 5549 5554 5558 5561 5564 5568 5575 5578 5581 5583 5586 5589 5592 5594 5594 5594 5594 5594 5596 5597 5598 5599 5602 5605 5606 5607 5608 5610 5612 5615 5616 5617 5617 5618 5619 5622 5624 5627 5628 5631 5632 5633 5635 5635
5450 5453 5457 5460 5464 5468 5472 5476 5479 5482 5484 5487 5489 5492 5497 5501 5504 5506 5509 5514 5519 5525 5531 5537 5544 5550 5556 5562 5565 5566 5570 5578 5581 5583 5585 5587 5589 5589 5590 5592 5593 5593 5593 5595 5598 5600 5602 5603 5605 5606 5607 5608 5609 5611 5613 5614 5615 5616 5616 5617 5619 5623 5625 5627 5629 5630 5632 5633 5633
5450 5454 5458 5461 5465 5468 5472 5476 5479 5483 5486 5488 5491 5494 5497 5502 5507 5509 5512 5516 5520 5524 5529 5535 5542 5549 5556 5563 5567 5570 5575 5581 5583 5584 5585 5588 5590 5588 5588 5590 5592 5593 5595 5597 5598 5600 5601 5602 5604 5605 5606 5607 5608 5609 5610 5611 5613 5613 5614 5615 5618 5620 5623 5624 5626 5628 5629 5630 5631
5451 5455 5459 5462 5466 5469 5473 5476 5480 5483 5486 5489 5491 5494 5498 5503 5508 5512 5515 5518 5521 5524 5529 5535 5543 5551 5559 5565 5568 5572 5576 5581 5582 5584 5585 5589 5589 5589 5589 5592 5593 5595 5596 5598 5599 5600 5601 5601 5602 5604 5605 5606 5607 5608 5609 5610 5611 5611 5612 5614 5615 5618 5620 5622 5624 5626 5628 5629 5629
5451 5455 5460 5463 5467 5470 5474 5477 5481 5484 5487 5490 5492 5495 5498 5502 5508 5513 5517 5519 5522 5526 5531 5539 5545 5551 5558 5566 5569 5571 5574 5579 5580 5582 5585 5587 5588 5589 5590 5592 5593 5595 5597 5599 5600 5600 5601 5601 5602 5603 5603 5604 5605 5606 5607 5608 5609 5610 5611 5612 5613 5615 5617 5619 5621 5623 5626 5626 5627
5452 5456 5461 5465 5468 5472 5475 5480 5483 5486 5489 5491 5493 5495 5498 5502 5506 5511 5516 5520 5524 5529 5534 5539 5544 5547 5553 5563 5570 5573 5575 5581 5583 5583 5584 5586 5587 5587 5588 5590 5591 5595 5598 5598 5599 5600 5600 5601 5601 5601 5600 5600 5602 5604 5605 5607 5608 5608 5609 5610 5611 5613 5615 5616 5618 5621 5623 5624 5625
5453 5458 5462 5466 5470 5473 5477 5481 5485 5488 5491 5493 5495 5497 5499 5502 5505 5509 5514 5517 5522 5527 5532 5535 5541 5546 5552 5560 5570 5577 5582 5586 5593 5592 5587 5583 5584 5586 5587 5589 5590 5594 5597 5598 5600 5601 5601 5600 5600 5599 5599 5598 5600 5603 5604 5605 5606 5607 5607 5608 5610 5611 5612 5613 5615 5618 5621 5622 5623
5455 5459 5463 5467 5471 5475 5478 5483 5487 5491 5494 5496 5497 5499 5501 5503 5505 5509 5512 5516 5520 5524 5529 5535 5541 5548 5554 5561 5566 5575 5583 5588 5594 5594 5588 5582 5585 5587 5586 5587 5590 5593 5596 5598 5600 5601 5601 5599 5599 5599 5599 5599 5600 5601 5602 5604 5604 5605 5606 5607 5608 5609 5610 5612 5613 5616 5618 5619 5620
5455 5460 5464 5468 5472 5476 5480 5485 5489 5493 5496 5498 5500 5502 5503 5505 5507 5510 5513 5517 5520 5524 5530 5537 5543 5549 5556 5562 5567 5571 5577 5582 5585 5585 5583 5582 5586 5588 5587 5588 5591 5593 5596 5598 5599 5600 5600 5598 5598 5598 5599 5599 5600 5601 5602 5602 5603 5604 5605 5607 5607 5608 5609 5611 5612 5613 5615 5616 5617
5455 5460 5464 5469 5473 5477 5482 5486 5491 5495 5499 5502 5504 5505 5507 5508 5510 5512 5515 5519 5522 5526 5532 5538 5544 5549 5556 5562 5567 5571 5574 5578 5581 5581 5580 5581 5585 5588 5590 5592 5593 5595 5597 5599 5599 5599 5599 5599 5598 5598 5598 5598 5599 5600 5601 5601 5602 5603 5604 5606 5607 5607 5608 5609 5609 5610 5612 5613 5614
5455 5459 5464 5469 5474 5478 5483 5487 5492 5497 5501 5505 5508 5509 5510 5511 5513 5515 5518 5520 5524 5529 5534 5539 5544 5548 5553 5558 5563 5568 5571 5574 5578 5580 5580 5584 5587 5590 5593 5594 5595 5596 5597 5598 5598 5598 5598 5599 5598 5598 5598 5598 5599 5599 5600 5601 5602 5603 5604 5605 5605 5605 5606 5606 5608 5608 5609 5611 5612
5454 5459 5464 5470 5474 5479 5483 5488 5493 5497 5502 5507 5511 5513 5514 5515 5516 5518 5520 5523 5527 5530 5534 5539 5544 5547 5551 5554 5558 5561 5565 5569 5574 5578 5582 5586 5590 5593 5595 5595 5596 5597 5598 5599 5598 5598 5598 5599 5599 5599 5598 5598 5599 5599 5600 5601 5602 5603 5603 5603 5603 5604 5604 5605 5606 5607 5609 5610 5611
5455 5460 5464 5469 5474 5480 5484 5488 5493 5498 5503 5508 5513 5516 5517 5518 5519 5521 5523 5526 5528 5533 5536 5540 5544 5547 5550 5552 5555 5557 5561 5566 5572 5579 5584 5588 5591 5593 5595 5595 5596 5597 5599 5599 5597 5596 5597 5598 5599 5599 5598 5598 5599 5599 5600 5601 5601 5601 5602 5602 5601 5601 5602 5604 5605 5606 5608 5609 5610
5454 5459 5464 5470 5475 5480 5485 5489 5494 5499 5504 5509 5514 5518 5519 5521 5522 5524 5526 5528 5531 5534 5538 5541 5545 5548 5551 5553 5556 5557 5560 5564 5570 5577 5583 5589 5590 5592 5594 5595 5596 5597 5598 5598 5596 5595 5596 5596 5597 5597 5598 5598 5599 5599 5599 5600 5600 5601 5600 5600 5599 5599 5600 5602 5604 5605 5607 5607 5608
5454 5459 5465 5470 5475 5480 5486 5490 5495 5500 5505 5510 5516 5519 5522 5523 5524 5526 5528 5531 5533 5536 5539 5542 5546 5549 5552 5555 5557 5559 5561 5564 5569 5577 5582 5586 5588 5590 5592 5594 5595 5597 5597 5595 5595 5595 5595 5595 5595 5595 5596 5597 5597 5598 5598 5599 5599 5599 5598 5598 5597 5598 5599 5601 5602 5604 5604 5605 5607
5454 5458 5464 5470 5475 5481 5487 5492 5496 5502 5506 5512 5517 5521 5524 5526 5527 5529 5530 5533 5536 5538 5541 5544 5548 5553 5555 5559 5561 5563 5564 5567 5570 5576 5582 5588 5590 5589 5590 5592 5594 5595 5595 5594 5594 5594 5593 5593 5593 5592 5593 5594 5595 5596 5596 5596 5597 5597 5597 5597 5596 5597 5599 5600 5601 5602 5602 5603 5604
5453 5458 5463 5470 5475 5481 5487 5493 5498 5503 5508 5514 5520 5524 5527 5528 5529 5531 5533 5535 5537 5540 5543 5547 5551 5556 5559 5562 5565 5567 5569 5570 5573 5576 5580 5586 5588 5588 5588 5590 5593 5594 5593 5593 5592 5593 5592 5590 5590 5589 5589 5591 5592 5594 5593 5594 5594 5595 5596 5595 5596 5597 5598 5599 5600 5600 5601 5601 5603
5453 5458 5463 5468 5475 5481 5487 5493 5498 5504 5509 5515 5521 5526 5529 5530 5532 5534 5536 5538 5540 5543 5546 5549 5553 5558 5562 5566 5568 5570 5572 5573 5575 5577 5579 5583 5586 5587 5589 5590 5593 5593 5591 5591 5591 5590 5589 5589 5587 5587 5587 5588 5590 5591 5592 5592 5593 5593 5594 5595 5595 5596 5597 5598 5599 5599 5599 5600 5601
5452 5457 5463 5468 5475 5481 5487 5493 5498 5504 5510 5516 5522 5527 5531 5533 5534 5536 5538 5540 5543 5546 5549 5552 5555 5559 5563 5567 5570 5572 5574 5576 5576 5576 5578 5581 5584 5587 5589 5590 5592 5591 5588 5587 5588 5587 5586 5586 5585 5585 5586 5587 5589 5591 5592 5592 5592 5592 5593 5594 5594 5595 5595 5596 5597 5597 5597 5598 5599
5451 5456 5462 5468 5473 5480 5485 5491 5498 5503 5510 5517 5523 5528 5532 5534 5536 5538 5541 5544 5546 5550 5552 5555 5558 5561 5565 5568 5570 5572 5575 5577 5577 5577 5579 5581 5584 5586 5588 5589 5590 5587 5584 5584 5585 5584 5582 5582 5583 5583 5584 5585 5586 5588 5589 5589 5590 5590 5591 5592 5592 5593 5593 5593 5595 5595 5596 5596 5597
5450 5456 5461 5466 5472 5478 5483 5489 5496 5503 5509 5516 5524 5530 5534 5536 5538 5540 5543 5546 5550 5554 5557 5560 5562 5564 5567 5570 5572 5574 5576 5578 5578 5578 5579 5581 5582 5585 5586 5587 5587 5584 5581 5582 5583 5582 5580 5580 5580 5581 5582 5582 5582 5583 5584 5584 5584 5584 5585 5586 5585 5585 5585 5587 5590 5593 5594 5595 5596
5449 5454 5459 5464 5469 5474 5481 5487 5494 5501 5508 5515 5522 5528 5533 5537 5538 5540 5544 5547 5550 5555 5560 5564 5567 5568 5570 5572 5574 5575 5576 5577 5578 5578 5578 5579 5581 5582 5583 5584 5583 5579 5578 5580 5580 5578 5577 5578 5579 5578 5578 5577 5577 5578 5578 5577 5578 5579 5579 5579 5579 5580 5580 5581 5582 5584 5588 5592 5593
5445 5451 5456 5461 5467 5472 5478 5485 5492 5499 5506 5512 5518 5524 5529 5534 5535 5538 5541 5545 5550 5555 5561 5567 5571 5572 5572 5575 5575 5577 5578 5576 5577 5577 5577 5578 5578 5578 5578 5579 5577 5575 5575 5577 5579 5578 5576 5574 5575 5576 5576 5574 5574 5575 5575 5576 5576 5576 5577 5576 5576 5577 5578 5579 5580 5579 5580 5584 5587
5443 5449 5453 5459 5465 5471 5476 5483 5489 5496 5502 5508 5514 5519 5523 5527 5530 5533 5538 5542 5549 5555 5562 5567 5570 5571 5573 5575 5572 5574 5575 5572 5573 5574 5575 5575 5575 5575 5574 5572 5570 5570 5571 5573 5578 5578 5576 5574 5574 5573 5573 5574 5574 5575 5575 5575 5575 5574 5574 5574 5574 5574 5575 5575 5575 5575 5576 5577 5580
5442 5447 5452 5458 5463 5469 5474 5480 5486 5493 5499 5504 5509 5514 5518 5522 5525 5530 5534 5539 5546 5553 5558 5562 5564 5566 5567 5568 5564 5563 5564 5566 5567 5569 5569 5569 5570 5569 5568 5567 5566 5567 5568 5569 5574 5575 5573 5574 5574 5574 5574 5574 5574 5574 5573 5573 5572 5572 5571 5571 5571 5570 5570 5570 5570 5571 5572 5573 5574
5441 5446 5451 5456 5461 5466 5472 5478 5483 5489 5494 5499 5504 5508 5513 5516 5520 5525 5530 5534 5540 5545 5549 5552 5554 5554 5555 5556 5556 5556 5557 5559 5560 5561 5561 5561 5562 5563 5564 5565 5564 5564 5565 5566 5569 5571 5571 5571 5571 5573 5573 5573 5573 5572 5571 5570 5569 5569 5568 5567 5566 5566 5566 5566 5567 5567 5567 5568 5570
5441 5445 5449 5454 5459 5464 5470 5475 5480 5485 5490 5494 5498 5503 5508 5512 5515 5520 5524 5529 5533 5537 5540 5543 5545 5547 5549 5552 5553 5553 5553 5553 5553 5553 5554 5554 5556 5558 5559 5561 5562 5562 5564 5565 5565 5566 5567 5568 5569 5570 5570 5570 5570 5569 5568 5567 5566 5565 5564 5563 5563 5562 5562 5562 5562 5562 5563 5563 5566
5439 5443 5448 5453 5457 5462 5467 5471 5476 5480 5485 5489 5494 5498 5502 5506 5510 5515 5519 5523 5527 5531 5533 5535 5538 5540 5543 5546 5548 5548 5546 5546 5546 5546 5548 5549 5550 5552 5554 5556 5557 5559 5561 5562 5562 5562 5564 5565 5566 5567 5567 5568 5567 5566 5565 5564 5563 5561 5560 5559 5559 5559 5558 5557 5557 5558 5558 5559 5560
5437 5442 5447 5451 5456 5460 5464 5468 5472 5476 5480 5484 5489 5493 5497 5501 5506 5510 5514 5517 5521 5525 5527 5529 5530 5533 5536 5539 5540 5540 5539 5538 5538 5539 5542 5544 5546 5548 5550 5551 5552 5554 5555 5556 5557 5560 5562 5564 5564 5565 5566 5565 5564 5562 5561 5561 5559 5558 5556 5555 5555 5554 5553 5552 5552 5553 5553 5554 5555